EST,Max TemperatureF,Mean TemperatureF,Min TemperatureF,Max Dew PointF,MeanDew PointF,Min DewpointF,Max Humidity, Mean Humidity, Min Humidity, Max Sea Level PressureIn, Mean Sea Level PressureIn, Min Sea Level PressureIn, Max VisibilityMiles, Mean VisibilityMiles, Min VisibilityMiles, Max Wind SpeedMPH, Mean Wind SpeedMPH, Max Gust SpeedMPH,PrecipitationIn, CloudCover, Events, WindDirDegrees
2013-11-1,66,60,57,63,60,57,100,93,87,29.89,29.72,29.62,10,6,1,28,21,39,0.05,7,Rain,209
2013-11-2,60,56,52,60,55,50,100,96,78,29.73,29.67,29.60,10,4,0,12,5,,0.15,6,Fog-Rain,253
2013-11-3,55,48,42,54,41,26,100,78,48,30.30,29.98,29.71,10,9,2,28,12,33,0.00,6,Rain,3
2013-11-4,44,42,39,29,26,24,62,55,45,30.67,30.56,30.34,10,10,10,23,16,29,0.00,6,,19
2013-11-5,50,44,37,36,32,29,83,65,50,30.68,30.63,30.54,10,10,10,7,4,,0.00,5,,30
2013-11-6,55,46,37,54,45,35,97,86,69,30.54,30.35,30.13,10,10,10,12,4,,0.00,0,,161
2013-11-7,63,56,48,61,54,39,100,91,71,30.11,29.81,29.71,10,6,1,23,14,32,1.44,7,Rain,248
2013-11-8,50,46,39,37,26,19,71,48,40,30.10,29.93,29.80,10,10,10,24,19,33,0.16,2,,303
2013-11-9,48,44,39,36,25,20,61,50,42,30.21,30.15,30.10,10,10,10,20,14,26,0.00,1,,292
2013-11-10,57,52,48,46,40,32,76,62,54,30.06,29.86,29.75,10,10,10,30,16,41,0.01,5,Rain-Thunderstorm,258
2013-11-11,54,48,43,44,32,26,69,55,43,30.09,30.02,29.90,10,10,10,25,20,36,0.00,3,,270
2013-11-12,55,44,32,45,32,22,93,76,55,30.15,30.03,29.91,10,7,1,26,18,33,0.06,7,Rain-Snow,325
2013-11-13,37,34,30,25,19,14,69,59,44,30.26,30.20,30.15,10,10,10,18,14,29,0.00,3,,319
2013-11-14,51,42,33,37,31,20,64,55,43,30.22,30.15,30.09,10,10,10,25,16,33,0.00,0,,261
2013-11-15,57,54,50,47,42,32,86,68,48,30.25,30.21,30.18,10,10,8,20,14,,0.00,0,,239
2013-11-16,55,47,39,47,42,37,100,83,53,30.34,30.30,30.23,10,6,0,10,5,,0.00,1,Fog,255
2013-11-17,55,46,37,55,48,37,100,93,69,30.34,30.19,29.91,10,5,0,17,6,,0.06,6,Fog-Rain,130
2013-11-18,60,56,51,59,54,41,100,92,66,29.88,29.71,29.63,10,5,0,28,18,40,0.43,5,Fog-Rain,198
2013-11-19,52,44,37,37,24,19,61,46,34,30.25,29.95,29.68,10,10,10,25,16,33,0.00,2,,319
2013-11-20,42,38,34,24,21,20,64,52,43,30.58,30.46,30.26,10,10,10,20,15,29,0.00,3,,357
2013-11-21,48,39,30,35,29,23,86,69,46,30.61,30.54,30.42,10,10,10,9,4,,0.00,1,,343
2013-11-22,53,47,41,54,47,35,100,88,77,30.39,30.09,29.85,10,8,2,17,7,29,0.07,8,Rain,226
2013-11-23,52,44,36,50,31,17,96,59,34,29.87,29.82,29.79,10,9,5,24,10,36,0.01,3,Rain,295
2013-11-24,34,30,25,13,5,-4,49,39,25,30.16,29.93,29.78,10,10,10,32,22,54,0.00,3,,303
2013-11-25,43,32,23,30,13,2,65,47,28,30.40,30.33,30.18,10,10,10,24,18,39,0.00,2,,277
2013-11-26,50,46,43,48,38,32,94,73,58,30.35,30.27,30.06,10,10,10,22,15,30,0.04,7,Rain,210
2013-11-27,59,50,42,59,53,37,100,95,82,30.01,29.43,29.16,10,4,1,37,24,50,1.97,8,Rain,184
2013-11-28,41,34,28,36,21,12,81,56,41,30.44,30.02,29.51,10,10,10,28,17,34,0.00,3,,286
2013-11-29,36,32,27,17,13,7,63,47,38,30.69,30.57,30.44,10,10,10,16,11,20,0.00,5,,332
2013-11-30,39,32,26,26,18,11,66,56,43,30.74,30.65,30.48,10,10,10,13,8,,0.00,2,,80